FW0880 Weather Reports


time (UTC)temp
C
wind
direction
speed
KPH
gust
KPH
rain 1hr
cm
rain 24hr
cm
rain mn
cm
humidity
%
barometer
mb
20260905111505 28 42 1.6 6.4 0.00 0.00 0.00 75 1008.0
20260905111009 28 63 1.6 4.8 0.00 0.00 0.00 75 1008.0
20260905110508 28 355 1.6 8.0 0.00 0.00 0.00 74 1007.9
20260905110019 28 350 3.2 6.4 0.00 0.00 0.00 74 1008.0
20260905105519 28 351 1.6 6.4 0.00 0.00 0.00 75 1008.0
20260905105021 28 307 3.2 6.4 0.00 0.00 0.00 76 1008.0
20260905104521 28 329 1.6 6.4 0.00 0.00 0.00 76 1007.9
20260905104005 28 325 3.2 6.4 0.00 0.00 0.00 77 1007.9
20260905103505 28 42 0.0 1.6 0.00 0.00 0.00 78 1007.8
20260905103034 28 42 0.0 1.6 0.00 0.00 0.00 78 1007.8
20260905102532 28 42 0.0 1.6 0.00 0.00 0.00 78 1007.9
20260905102022 28 42 0.0 0.0 0.00 0.00 0.00 77 1007.9
20260905101522 28 42 0.0 0.0 0.00 0.00 0.00 77 1007.9
20260905101005 28 42 0.0 0.0 0.00 0.00 0.00 76 1007.9
20260905100506 28 42 0.0 1.6 0.00 0.00 0.00 77 1007.8
20260905100012 28 42 0.0 3.2 0.00 0.00 0.00 77 1007.8
20260905095515 28 42 0.0 3.2 0.00 0.00 0.00 77 1007.8
20260905095020 28 42 0.0 3.2 0.00 0.00 0.00 77 1007.9
20260905094520 28 42 0.0 3.2 0.00 0.00 0.00 77 1008.0
20260905094003 28 42 0.0 1.6 0.00 0.00 0.00 77 1007.9
20260905093503 28 42 0.0 1.6 0.00 0.00 0.00 77 1008.0
20260905093007 28 42 0.0 3.2 0.00 0.00 0.00 77 1008.0
20260905092507 28 42 0.0 3.2 0.00 0.00 0.00 77 1008.1
20260905092017 28 42 0.0 3.2 0.00 0.00 0.00 77 1008.3
20260905091515 28 42 0.0 1.6 0.00 0.00 0.00 77 1008.2
20260905091016 29 42 0.0 3.2 0.00 0.00 0.00 77 1008.3
20260905090517 28 42 0.0 3.2 0.00 0.00 0.00 77 1008.2
20260905090022 28 42 1.6 3.2 0.00 0.00 0.00 76 1008.2
20260905085522 28 40 0.0 3.2 0.00 0.00 0.00 76 1008.1
20260905085004 28 35 0.0 0.0 0.00 0.00 0.00 75 1008.0
20260905084503 28 35 0.0 3.2 0.00 0.00 0.00 75 1007.9
20260905084007 28 35 0.0 3.2 0.00 0.00 0.00 75 1007.9
20260905083507 28 35 0.0 1.6 0.00 0.00 0.00 75 1008.0
20260905083042 28 35 0.0 1.6 0.00 0.00 0.00 75 1007.9
20260905082550 28 35 0.0 1.6 0.00 0.00 0.00 76 1008.0
20260905082020 28 35 0.0 3.2 0.00 0.00 0.00 76 1007.9
20260905081520 28 35 0.0 4.8 0.00 0.00 0.00 76 1008.0
20260905081021 28 35 1.6 4.8 0.00 0.00 0.00 77 1008.0
20260905080520 29 110 0.0 3.2 0.00 0.00 0.00 79 1008.1
20260905080007 29 110 0.0 3.2 0.00 0.00 0.00 78 1008.1
20260905075507 29 110 0.0 3.2 0.00 0.00 0.00 78 1008.1
20260905075011 29 110 0.0 3.2 0.00 0.00 0.00 78 1008.1
20260905074516 29 110 0.0 0.0 0.00 0.00 0.00 78 1008.2
20260905074019 29 110 0.0 0.0 0.00 0.00 0.00 78 1008.3
20260905073517 29 110 0.0 0.0 0.00 0.00 0.00 78 1008.3
20260905073032 29 110 0.0 0.0 0.00 0.00 0.00 78 1008.1
20260905072519 29 110 0.0 0.0 0.00 0.00 0.00 78 1008.1
20260905072003 29 110 0.0 0.0 0.00 0.00 0.00 79 1008.0
20260905071504 29 110 0.0 0.0 0.00 0.00 0.00 79 1007.9
20260905071012 30 110 0.0 3.2 0.00 0.00 0.00 79 1007.9
20260905070511 30 110 0.0 4.8 0.00 0.00 0.00 79 1007.9
20260905070017 30 109 1.6 4.8 0.00 0.00 0.00 79 1008.0
20260905065517 30 110 0.0 4.8 0.00 0.00 0.00 79 1008.1
20260905065022 30 110 1.6 4.8 0.00 0.00 0.00 79 1008.0
20260905064517 30 69 0.0 0.0 0.00 0.00 0.00 78 1008.1
20260905064022 30 69 0.0 1.6 0.00 0.00 0.00 78 1008.2
20260905063521 30 69 0.0 3.2 0.00 0.00 0.00 78 1008.3
20260905063007 30 69 0.0 3.2 0.00 0.00 0.00 78 1008.4
20260905062510 30 69 0.0 3.2 0.00 0.00 0.00 78 1008.3
20260905062009 30 69 0.0 3.2 0.00 0.00 0.00 78 1008.2
20260905061509 30 69 0.0 3.2 0.00 0.00 0.00 78 1008.2
20260905061019 30 70 0.0 3.2 0.00 0.00 0.00 78 1008.2
20260905060517 30 70 0.0 3.2 0.00 0.00 0.00 78 1008.3
20260905060022 30 70 0.0 3.2 0.00 0.00 0.00 78 1008.3
20260905055522 30 70 0.0 3.2 0.00 0.00 0.00 77 1008.2
20260905055025 30 69 0.0 1.6 0.00 0.00 0.00 76 1008.2
20260905054525 30 69 0.0 3.2 0.00 0.00 0.00 76 1008.3
20260905054009 30 69 0.0 3.2 0.00 0.00 0.00 76 1008.4
20260905053507 30 69 0.0 3.2 0.00 0.00 0.00 76 1008.5
20260905053011 30 69 0.0 6.4 0.00 0.00 0.00 76 1008.5
20260905052510 30 69 1.6 6.4 0.00 0.00 0.00 77 1008.7
20260905052014 30 68 0.0 3.2 0.00 0.00 0.00 77 1008.8
20260905051513 30 68 0.0 3.2 0.00 0.00 0.00 78 1008.8
20260905051018 30 68 0.0 3.2 0.00 0.00 0.00 78 1008.8
20260905050521 30 68 0.0 3.2 0.00 0.00 0.00 78 1008.9
20260905050004 30 68 0.0 8.0 0.00 0.00 0.00 78 1008.9
20260905045504 30 65 1.6 8.0 0.00 0.00 0.00 78 1008.9
20260905045007 30 148 0.0 4.8 0.00 0.00 0.00 78 1008.9
20260905044507 31 159 0.0 3.2 0.00 0.00 0.00 78 1008.9
20260905044010 31 159 0.0 3.2 0.00 0.00 0.00 78 1008.9
20260905043513 31 159 0.0 4.8 0.00 0.00 0.00 78 1008.9
20260905043018 31 159 0.0 8.0 0.00 0.00 0.00 78 1008.8
20260905042517 31 154 0.0 6.4 0.00 0.00 0.00 78 1008.9
20260905042021 31 153 1.6 8.0 0.00 0.00 0.00 78 1008.9
20260905041521 31 153 1.6 8.0 0.00 0.00 0.00 78 1008.8
20260905041010 31 148 3.2 8.0 0.00 0.00 0.00 77 1008.9
20260905040510 31 160 4.8 8.0 0.00 0.00 0.00 77 1008.8
20260905040022 31 140 1.6 8.0 0.00 0.00 0.00 77 1008.8
20260905035515 31 140 1.6 8.0 0.00 0.00 0.00 77 1008.7
20260905035017 31 138 0.0 6.4 0.00 0.00 0.00 77 1008.7
20260905034521 31 136 1.6 11.3 0.00 0.00 0.00 77 1008.7
20260905034021 31 150 1.6 11.3 0.00 0.00 0.00 77 1008.8
20260905033521 31 161 4.8 8.0 0.00 0.00 0.00 77 1008.7
20260905033017 31 192 4.8 9.7 0.00 0.00 0.00 77 1008.7
20260905032505 31 174 6.4 9.7 0.00 0.00 0.00 77 1008.6
20260905032010 31 196 4.8 9.7 0.00 0.00 0.00 77 1008.5
20260905031517 31 207 4.8 9.7 0.00 0.00 0.00 77 1008.5
20260905031020 31 178 4.8 8.0 0.00 0.00 0.00 77 1008.4
20260905030521 31 150 3.2 8.0 0.00 0.00 0.00 77 1008.4
20260905030006 31 190 3.2 11.3 0.00 0.00 0.00 77 1008.2
20260905025508 31 159 4.8 11.3 0.00 0.00 0.00 77 1008.2
20260905025009 31 180 4.8 11.3 0.00 0.00 0.00 77 1008.2
20260905024608 31 179 6.4 11.3 0.00 0.00 0.00 77 1008.1
20260905024020 31 190 4.8 16.1 0.00 0.00 0.00 77 1008.0
20260905023517 31 178 8.0 14.5 0.00 0.00 0.00 77 1008.0
20260905023037 31 196 6.4 16.1 0.00 0.00 0.00 77 1007.8
20260905022517 31 202 6.4 16.1 0.00 0.00 0.00 76 1007.7
20260905022018 31 156 8.0 14.5 0.00 0.00 0.00 76 1007.7
20260905021519 31 183 8.0 14.5 0.00 0.00 0.00 76 1007.8
20260905021007 31 158 6.4 14.5 0.00 0.00 0.00 76 1007.6
20260905020509 31 188 4.8 14.5 0.00 0.00 0.00 76 1007.7
20260905020022 31 238 6.4 12.9 0.00 0.00 0.00 77 1007.7
20260905015512 31 188 8.0 14.5 0.00 0.00 0.00 78 1007.6
20260905015019 31 194 6.4 14.5 0.00 0.00 0.00 78 1007.6
20260905014516 31 179 6.4 14.5 0.00 0.00 0.00 78 1007.5
20260905014017 31 261 6.4 14.5 0.00 0.00 0.00 78 1007.4
20260905013516 31 192 6.4 17.7 0.00 0.00 0.00 78 1007.3
20260905013024 32 224 6.4 17.7 0.00 0.00 0.00 77 1007.2
20260905012520 32 184 6.4 16.1 0.00 0.00 0.00 77 1007.2
20260905012005 32 180 8.0 14.5 0.00 0.00 0.00 77 1007.2
20260905011505 32 197 8.0 12.9 0.00 0.00 0.00 77 1007.2
20260905011009 32 242 8.0 12.9 0.00 0.00 0.00 77 1007.2
20260905010509 32 170 6.4 12.9 0.00 0.00 0.00 77 1007.1
20260905010021 32 171 6.4 11.3 0.00 0.00 0.00 77 1007.1
20260905005520 32 223 6.4 12.9 0.00 0.00 0.00 76 1007.1
20260905005024 32 206 6.4 11.3 0.00 0.00 0.00 75 1007.1
20260905004524 32 238 1.6 11.3 0.00 0.00 0.00 75 1007.0
20260905004007 32 229 4.8 11.3 0.00 0.00 0.00 75 1006.8
20260905003512 32 235 4.8 12.9 0.00 0.00 0.00 74 1006.6
20260905003016 32 231 4.8 8.0 0.00 0.00 0.00 73 1006.6
20260905002515 32 245 3.2 12.9 0.00 0.00 0.00 73 1006.6
20260905002018 32 254 3.2 12.9 0.00 0.00 0.00 72 1006.6
20260905001520 33 198 3.2 8.0 0.00 0.00 0.00 70 1006.6
20260905001020 33 264 3.2 9.7 0.00 0.00 0.00 70 1006.5
20260905000521 33 184 3.2 9.7 0.00 0.00 0.00 69 1006.5
20260905000011 33 259 4.8 14.5 0.00 0.00 0.00 68 1006.5
20260904235510 33 325 4.8 17.7 0.00 0.00 0.00 66 1006.5
20260904235016 33 180 8.0 17.7 0.00 0.00 0.00 64 1006.6
20260904234525 33 195 8.0 16.1 0.00 0.00 0.00 65 1006.4
20260904234016 33 222 6.4 16.1 0.00 0.00 0.00 65 1006.4
20260904233516 33 222 4.8 16.1 0.00 0.00 0.00 67 1006.5
20260904233016 33 237 6.4 16.1 0.00 0.00 0.00 66 1006.4
20260904232517 33 196 3.2 16.1 0.00 0.00 0.00 66 1006.4
20260904232024 33 227 6.4 12.9 0.00 0.00 0.00 66 1006.3
20260904231522 33 227 6.4 14.5 0.00 0.00 0.00 65 1006.3
20260904231009 33 271 6.4 17.7 0.00 0.00 0.00 64 1006.3
20260904230509 33 259 8.0 17.7 0.00 0.00 0.00 64 1006.3
20260904230012 33 213 6.4 20.9 0.00 0.00 0.00 66 1006.3
20260904225513 33 246 9.7 19.3 0.00 0.00 0.00 66 1006.4
20260904225019 33 212 11.3 19.3 0.00 0.00 0.00 65 1006.5
20260904224519 34 196 9.7 17.7 0.00 0.00 0.00 64 1006.4
20260904224017 33 224 8.0 16.1 0.00 0.00 0.00 64 1006.6
20260904223517 34 232 8.0 19.3 0.00 0.00 0.00 63 1006.5
20260904223020 33 182 6.4 19.3 0.00 0.00 0.00 64 1006.5
20260904222519 33 211 6.4 16.1 0.00 0.00 0.00 63 1006.5
20260904222008 34 259 9.7 17.7 0.00 0.00 0.00 64 1006.5
20260904221509 34 222 8.0 17.7 0.00 0.00 0.00 63 1006.3
20260904221011 34 200 6.4 16.1 0.00 0.00 0.00 62 1006.1
20260904220511 33 184 8.0 16.1 0.00 0.00 0.00 62 1006.0
20260904220026 33 205 9.7 16.1 0.00 0.00 0.00 63 1006.0
20260904215517 34 213 9.7 19.3 0.00 0.00 0.00 62 1006.1
20260904215023 34 264 8.0 19.3 0.00 0.00 0.00 62 1006.2
20260904214523 34 208 4.8 20.9 0.00 0.00 0.00 63 1006.2
20260904214007 34 226 11.3 20.9 0.00 0.00 0.00 64 1006.3
20260904213511 34 185 11.3 22.5 0.00 0.00 0.00 61 1006.3
20260904213014 34 200 12.9 22.5 0.00 0.00 0.00 60 1006.3
20260904212515 33 169 11.3 25.7 0.00 0.00 0.00 59 1006.3
20260904212019 33 249 8.0 14.5 0.00 0.00 0.00 63 1006.4
20260904211519 34 240 8.0 16.1 0.00 0.00 0.00 65 1006.4
20260904211006 34 223 8.0 16.1 0.00 0.00 0.00 65 1006.5
20260904210509 34 200 8.0 14.5 0.00 0.00 0.00 65 1006.4
20260904210015 33 360 4.8 14.5 0.00 0.00 0.00 66 1006.4
20260904205511 33 170 4.8 14.5 0.00 0.00 0.00 66 1006.4
20260904205015 33 294 6.4 14.5 0.00 0.00 0.00 65 1006.6
20260904204514 33 199 6.4 14.5 0.00 0.00 0.00 64 1006.7
20260904204022 34 174 8.0 14.5 0.00 0.00 0.00 65 1006.8
20260904203526 33 216 4.8 16.1 0.00 0.00 0.00 66 1006.9
20260904203007 33 248 6.4 16.1 0.00 0.00 0.00 65 1007.1
20260904202504 33 171 8.0 14.5 0.00 0.00 0.00 66 1007.1
20260904202009 33 360 8.0 16.1 0.00 0.00 0.00 66 1007.1
20260904201509 34 207 9.7 16.1 0.00 0.00 0.00 66 1007.0
20260904201021 33 186 8.0 14.5 0.00 0.00 0.00 66 1007.0
20260904200516 33 242 8.0 12.9 0.00 0.00 0.00 66 1007.2
20260904200020 33 165 6.4 14.5 0.00 0.00 0.00 68 1007.3
20260904195520 33 192 8.0 14.5 0.00 0.00 0.00 68 1007.4
20260904195020 33 279 3.2 14.5 0.00 0.00 0.00 68 1007.5
20260904194542 33 194 6.4 14.5 0.00 0.00 0.00 66 1007.6
20260904194032 33 244 4.8 11.3 0.00 0.00 0.00 68 1007.5
20260904193531 33 238 4.8 14.5 0.00 0.00 0.00 68 1007.4
20260904193006 33 250 4.8 14.5 0.00 0.00 0.00 68 1007.5
20260904192506 33 205 3.2 16.1 0.00 0.00 0.00 70 1007.5
20260904192009 33 200 8.0 17.7 0.00 0.00 0.00 70 1007.6
20260904191514 33 236 9.7 17.7 0.00 0.00 0.00 69 1007.7
20260904191019 33 246 6.4 14.5 0.00 0.00 0.00 68 1007.7
20260904190517 33 192 8.0 14.5 0.00 0.00 0.00 70 1007.8
20260904190019 33 220 8.0 17.7 0.00 0.00 0.00 70 1007.7
20260904185520 32 248 11.3 19.3 0.00 0.00 0.00 71 1007.8
20260904185020 32 192 9.7 19.3 0.00 0.00 0.00 71 1007.8
20260904184519 32 213 8.0 17.7 0.00 0.00 0.00 70 1007.8
20260904184008 32 200 8.0 16.1 0.00 0.00 0.00 70 1007.9
20260904183508 32 163 8.0 16.1 0.00 0.00 0.00 71 1007.9
20260904183013 32 229 8.0 16.1 0.00 0.00 0.00 70 1008.0
20260904182515 32 235 6.4 14.5 0.00 0.00 0.00 72 1008.1
20260904182017 32 238 4.8 14.5 0.00 0.00 0.00 71 1008.1
20260904181516 32 239 8.0 16.1 0.00 0.00 0.00 71 1008.2
20260904181020 32 265 8.0 16.1 0.00 0.00 0.00 70 1008.3
20260904180516 32 220 6.4 14.5 0.00 0.00 0.00 70 1008.3
20260904180024 32 205 8.0 14.5 0.00 0.00 0.00 70 1008.2
20260904175523 32 221 8.0 14.5 0.00 0.00 0.00 69 1008.3
20260904175008 32 188 6.4 14.5 0.00 0.00 0.00 70 1008.3
20260904174507 32 183 4.8 12.9 0.00 0.00 0.00 71 1008.4
20260904174011 32 263 6.4 12.9 0.00 0.00 0.00 72 1008.4
20260904173510 32 174 6.4 12.9 0.00 0.00 0.00 71 1008.4
20260904173020 32 231 6.4 11.3 0.00 0.00 0.00 71 1008.4
20260904172523 32 182 6.4 12.9 0.00 0.00 0.00 71 1008.4
20260904172021 32 192 6.4 12.9 0.00 0.00 0.00 72 1008.3
20260904171522 32 171 6.4 12.9 0.00 0.00 0.00 72 1008.5
20260904171026 31 196 4.8 14.5 0.00 0.00 0.00 73 1008.5
20260904170524 31 188 6.4 14.5 0.00 0.00 0.00 73 1008.5
20260904170012 31 183 4.8 11.3 0.00 0.00 0.00 73 1008.5
20260904165510 31 226 4.8 12.9 0.00 0.00 0.00 73 1008.5
20260904165016 31 240 8.0 12.9 0.00 0.00 0.00 73 1008.6
20260904164514 31 221 3.2 12.9 0.00 0.00 0.00 74 1008.5
20260904164018 31 284 4.8 12.9 0.00 0.00 0.00 75 1008.6
20260904163517 31 257 4.8 9.7 0.00 0.00 0.00 74 1008.6
20260904163024 31 215 4.8 11.3 0.00 0.00 0.00 74 1008.5
20260904162523 31 270 3.2 11.3 0.00 0.00 0.00 74 1008.4
20260904162008 31 254 1.6 8.0 0.00 0.00 0.00 74 1008.5
20260904161505 31 176 3.2 11.3 0.00 0.00 0.00 75 1008.6
20260904161012 31 258 4.8 11.3 0.00 0.00 0.00 74 1008.5
20260904160510 31 272 3.2 9.7 0.00 0.00 0.00 74 1008.5
20260904160021 30 234 4.8 9.7 0.00 0.00 0.00 74 1008.5
20260904155515 30 235 4.8 9.7 0.00 0.00 0.00 74 1008.5
20260904155026 30 194 3.2 11.3 0.00 0.00 0.00 75 1008.5
20260904154522 30 169 3.2 11.3 0.00 0.00 0.00 75 1008.4
20260904154007 30 198 4.8 11.3 0.00 0.00 0.00 75 1008.3
20260904153506 30 244 3.2 12.9 0.00 0.00 0.00 76 1008.3
20260904153012 30 218 6.4 12.9 0.00 0.00 0.00 74 1008.4
20260904152511 30 263 4.8 6.4 0.00 0.00 0.00 73 1008.3
20260904152020 30 246 1.6 6.4 0.00 0.00 0.00 73 1008.2
20260904151520 30 279 1.6 4.8 0.00 0.00 0.00 73 1008.2
20260904151027 30 281 0.0 6.4 0.00 0.00 0.00 74 1008.1
20260904150521 30 273 3.2 6.4 0.00 0.00 0.00 75 1008.2
20260904150011 29 268 1.6 6.4 0.00 0.00 0.00 75 1008.2
20260904145507 29 276 3.2 6.4 0.00 0.00 0.00 77 1008.2
20260904145017 29 267 1.6 9.7 0.00 0.00 0.00 78 1008.2
20260904144515 28 311 3.2 9.7 0.00 0.00 0.00 78 1008.2
20260904144018 28 296 1.6 6.4 0.00 0.00 0.00 78 1008.2
20260904143516 28 319 3.2 6.4 0.00 0.00 0.00 80 1008.0
20260904143021 28 320 1.6 6.4 0.00 0.00 0.00 82 1008.1
20260904142518 28 5 0.0 4.8 0.00 0.00 0.00 82 1008.0
20260904142006 27 9 1.6 4.8 0.00 0.00 0.00 83 1008.0
20260904141505 27 53 1.6 3.2 0.00 0.00 0.00 83 1008.1
20260904141010 27 55 0.0 1.6 0.00 0.00 0.00 83 1008.2
20260904140509 27 55 0.0 3.2 0.00 0.00 0.00 83 1008.2
20260904140018 27 55 0.0 3.2 0.00 0.00 0.00 84 1008.3
20260904135517 27 55 1.6 3.2 0.00 0.00 0.00 84 1008.2
20260904135024 27 55 0.0 1.6 0.00 0.00 0.00 85 1008.2
20260904134521 27 55 0.0 1.6 0.00 0.00 0.00 85 1008.2
20260904134009 27 55 0.0 3.2 0.00 0.00 0.00 85 1008.3
20260904133505 27 55 1.6 3.2 0.00 0.00 0.00 85 1008.4
20260904133010 26 53 1.6 3.2 0.00 0.00 0.00 85 1008.4
20260904132510 26 344 0.0 0.0 0.00 0.00 0.00 85 1008.4
20260904132020 26 345 0.0 0.0 0.00 0.00 0.00 84 1008.4
20260904131517 26 345 0.0 0.0 0.00 0.00 0.00 84 1008.4
20260904131019 26 345 0.0 0.0 0.00 0.00 0.00 84 1008.4
20260904130523 26 345 0.0 0.0 0.00 0.00 0.00 84 1008.3
20260904130024 26 345 0.0 1.6 0.00 0.00 0.00 84 1008.3
20260904125524 26 345 0.0 1.6 0.00 0.00 0.00 84 1008.2
20260904125009 26 345 0.0 1.6 0.00 0.00 0.00 84 1008.2
20260904124508 26 345 0.0 1.6 0.00 0.00 0.00 84 1008.2
20260904124016 26 345 0.0 3.2 0.00 0.00 0.00 84 1008.2
20260904123519 26 345 0.0 3.2 0.00 0.00 0.00 84 1008.3
20260904123019 26 345 0.0 3.2 0.00 0.00 0.00 84 1008.3
20260904122518 26 345 0.0 6.4 0.00 0.00 0.00 84 1008.3
20260904122021 26 340 1.6 8.0 0.00 0.00 0.00 84 1008.2
20260904121521 26 331 3.2 8.0 0.00 0.00 0.00 83 1008.2
20260904121009 26 318 3.2 4.8 0.00 0.00 0.00 83 1008.1
20260904120509 26 317 0.0 4.8 0.00 0.00 0.00 83 1008.1
20260904120017 26 317 0.0 6.4 0.00 0.00 0.00 83 1008.0
20260904115514 27 317 3.2 6.4 0.00 0.00 0.00 83 1008.0
20260904115022 27 308 1.6 6.4 0.00 0.00 0.00 83 1008.0
20260904114519 27 334 3.2 6.4 0.00 0.00 0.00 83 1008.0
20260904114022 27 355 1.6 4.8 0.00 0.00 0.00 83 1008.0
20260904113522 27 355 0.0 1.6 0.00 0.00 0.00 83 1008.0
20260904113014 27 355 0.0 0.0 0.00 0.00 0.00 83 1007.9
20260904112505 27 355 0.0 0.0 0.00 0.00 0.00 83 1007.9
20260904112009 27 355 0.0 0.0 0.00 0.00 0.00 83 1007.9